Location: Deer Path Park
(40.5570°N, 74.8450°W)
Time: 13:28:36
(UTC-04:00)

Iridium 49 - Visible Passes

Search period start: 20 April 2014 00:00
Search period end: 30 April 2014 00:00
Orbit: 776 x 779 km, 86.4° (Epoch: 20 April)

Date Brightness Start Highest point End Pass type
(mag) Time Alt. Az. Time Alt. Az. Time Alt. Az.
20 Apr 8.7 01:25:41 10° NW 01:26:06 11° NW 01:26:06 11° NW visible
20 Apr 7.8 23:10:00 10° NNE 23:12:19 23° NE 23:12:19 23° NE visible
21 Apr 8.3 00:50:57 10° NNW 00:52:47 19° NW 00:52:47 19° NW visible
21 Apr 8.1 22:37:19 10° NNE 22:39:01 16° NE 22:39:01 16° NE visible
22 Apr 7.8 00:16:55 10° NNW 00:19:29 28° NNW 00:19:29 28° NNW visible
22 Apr 7.4 23:43:14 10° N 23:46:12 35° N 23:46:12 35° N visible
23 Apr 7.3 23:09:51 10° N 23:12:54 32° NNE 23:12:54 32° NNE visible
24 Apr 8.4 00:51:38 10° NW 00:53:23 16° NW 00:53:23 16° NW visible
24 Apr 7.6 22:36:49 10° NNE 22:39:37 23° NE 22:39:37 23° NE visible
25 Apr 7.8 00:17:15 10° NNW 00:20:06 26° NW 00:20:06 26° NW visible
25 Apr 8.0 22:04:28 10° NE 22:06:20 14° ENE 22:06:20 14° ENE visible
25 Apr 7.2 23:43:22 10° N 23:46:49 41° NNW 23:46:49 41° NNW visible
26 Apr 6.8 23:09:48 10° N 23:13:33 47° NNE 23:13:33 47° NNE visible
27 Apr 8.6 00:52:47 10° NW 00:54:02 12° WNW 00:54:02 12° WNW visible
27 Apr 7.0 22:36:32 10° NNE 22:40:17 34° NE 22:40:17 34° NE visible
28 Apr 8.0 00:17:45 10° NNW 00:20:46 22° WNW 00:20:46 22° WNW visible
28 Apr 7.6 22:03:42 10° NNE 22:07:01 21° ENE 22:07:01 21° ENE visible
28 Apr 7.2 23:43:36 10° NNW 23:47:30 39° WNW 23:47:30 39° WNW visible
29 Apr 8.1 21:32:06 10° NE 21:33:42 11° ENE 21:33:46 11° ENE visible
29 Apr 6.3 23:09:51 10° N 23:14:15 63° NNW 23:14:15 63° NNW visible
